Weather in Lazarevskaya

Russia / Arkhangel'skaya Oblast'     61°29′04″N   39°28′52″E
temp.,
°C
wind,
m/s
gust,
m/s
humid.,
%
clouds,
%
prec.,
mm/h
press.,
hPa
HPBL,
m
28 november, sun
sun2800:00−7ne41195100 1.0 1006455
03:00−6ne51395100 2.5 1004561
06:00−7ne51295100 1.8 1002574
09:00−7ne41195100 3.6 1002526
12:00−8ne41095100 1.0 1002438
15:00−8nne41095100 1.9 1002427
18:00−9nne4995100 1.3 1002393
21:00−10n3895100 3.2 1003370
29 november, mon
mon2900:00−11n379588 0.9 1005316
03:00−11nw2595100 1.2 1009245
06:00−15nnw269976 0.0 1010104
09:00−20n1110061 0.0 101310
12:00−16ne139791 0.0 101487
15:00−19ne1199100 0.0 101310
18:00−16ene2996100 0.0 1012200
21:00−15ene3129490 0.0 1010285
30 november, tue
tue3000:00−14ene41493100 0.0 1007367
03:00−13ene41492100 0.0 1002426
06:00−12ene51594100 0.4 997462
09:00−11ne51692100 0.8 993524
12:00−9ne51493100 0.5 988547
15:00−9ne51394100 1.5 984597
18:00−9ne41294100 0.5 982572
21:00−9nne41194100 1.3 980538
1 december, wed
wed100:00−9nne3994100 0.4 979443
03:00−10n2695100 0.5 980307
06:00−10nnw2596100 0.2 981219
09:00−11nw149798 0.3 982112
12:00−10wnw139586 0.2 983171
15:00−11wsw1397100 0.3 98571
18:00−12wsw149882 0.2 98667
21:00−11sw1497100 0.4 986141
2 december, thu
thu200:00−10wsw1697100 0.4 987250
03:00−9wsw279697 0.9 987318
06:00−8wsw3109599 0.4 987495
09:00−8wsw4109499 0.6 988569
12:00−9wsw41092100 0.1 990530
15:00−10sw4993100 0.2 992442
18:00−11sw399395 0.1 993333
21:00−12sw399591 0.1 994257